Regional Weather Roundup
Issued by NWS Midland/Odessa, TX

Skip options and go directly to product.
Home | Oldest Version | Next Version | Current Version | All | Text Only | Save Text | Print | Product List | Glossary On

Skip product version selection by date and time.   
181
ASUS44 KMAF 291502
RWRMAF
MIDLAND AREA WEATHER ROUNDUP
NATIONAL WEATHER SERVICE MIDLAND TX
1000 AM CDT WED OCT 29 2014

...IN SOUTHWEST TEXAS AND SOUTHEAST NEW MEXICO...

CITY           SKY/WX    TMP DP  RH WIND       PRES   REMARKS
ALPINE         FAIR      57  41  54 CALM      30.33R
ANDREWS        FAIR      56  38  52 E7        30.28R
ARTESIA        NOT AVBL
BIG SPRING     FAIR      60  40  48 E3        30.28R
CARLSBAD       FAIR      55  45  68 CALM      30.26R
DRYDEN           N/A     67  53  61 N9        30.20R
FORT STOCKTON  FAIR      57  43  59 W7        30.26R
GUAD PASS      NOT AVBL
HOBBS          SUNNY     54  37  54 E8        30.29R
MARFA          FAIR      59  45  58 N3        30.29R
MIDLAND AIRPK  FAIR      55  41  59 E6        30.27R
MIDLAND INTL   FAIR      59  40  49 E9        30.26R
ODESSA         FAIR      58  39  49 E9        30.27R
PECOS          FAIR      56  43  62 E5        30.26R
PRESIDIO       FAIR      68  48  49 CALM      30.20R
SEMINOLE       FAIR      52  38  58 E5        30.29R
SNYDER         FAIR      55  40  57 NE7       30.27R
WINK           FAIR      58  40  51 E6        30.25R
$$
...OTHER STATIONS IN TEXAS...

CITY           SKY/WX    TMP DP  RH WIND       PRES   REMARKS
ABILENE        FAIR      58  41  53 N3        30.26R
AMARILLO       FAIR      50  36  58 S10       30.29R
AUSTIN         CLOUDY    70  63  78 N13       30.16R
BROWNSVILLE    PTSUNNY   77  72  84 CALM      30.09R
CORPUS CHRISTI FAIR      79  70  74 N5        30.11R
DALLAS FTW     FAIR      63  50  62 NE6       30.23R
DEL RIO        PTSUNNY   69  63  81 W3        30.15R
EL PASO        FAIR      58  41  53 N8        30.22R
HOUSTON INT    FAIR      77  68  73 NW8       30.12R
LUBBOCK        FAIR      55  36  48 SE9       30.28R
SAN ANGELO     FAIR      63  44  50 NE10      30.24R
SAN ANTONIO    CLOUDY    73  63  70 NE7       30.16R
WACO           CLOUDY    65  57  75 N9        30.20R
WICHITA FALLS  NOT AVBL
$$
...OTHER LOCATIONS IN NEW MEXICO...

CITY           SKY/WX    TMP DP  RH WIND       PRES   REMARKS
ALAMAGORDO     NOT AVBL
ALBUQUERQUE    FAIR      50  20  30 N10       30.31R
CANNON AFB     FAIR      49  35  57 S14       30.28R
CLOVIS         FAIR      48  34  57 S12       30.31R
HOLLOMAN AFB   FAIR      53  38  57 CALM      30.24R
ROSWELL        FAIR      50  43  77 CALM      30.27R
RUIDOSO        FAIR      55  32  41 NW5       30.36R
SANTA FE       FAIR      44  12  27 N15       30.32R WCI  37
TRUTH OR CONSE FAIR      56  39  53 CALM      30.26R
TUCUMCARI      FAIR      51  40  65 W7        30.26R
$$

USA.gov is the U.S. government's official web portal to all federal, state and local government web resources and services.